Theta_e
327 327 326 326 325 325 325 324 323 321 321 321 322 322 323 321 316 313 312 312 312 312 312 312 313 316 306 293 295 303 323 317 307 304 300 300 297 295 291 293 294 291 293 297 297 297 295
326 326 325 325 325 325 325 325 323 321 321 321 321 321 320 317 313 312 311 311 311 311 312 311 312 315 297 289 301 306 303 303 303 298 299 300 297 300 296 295 292 294 295 296 297 296 295
324 324 324 324 324 324 324 323 322 322 321 321 320 320 315 312 311 310 310 310 310 310 311 311 312 309 297 294 299 302 304 300 301 300 298 302 300 299 298 294 298 296 293 294 295 294 295
320 320 320 320 321 322 322 322 322 322 321 321 318 314 311 310 310 310 310 310 310 310 310 311 311 304 290 301 303 305 303 302 301 302 301 301 300 300 297 298 295 290 290 286 291 293 294
318 318 318 317 317 317 319 319 316 316 315 314 312 310 309 309 309 309 309 309 310 310 310 311 301 300 293 307 299 303 305 300 299 301 300 304 301 296 296 289 285 286 281 285 289 293 292
318 317 317 316 315 315 316 315 315 313 312 311 310 309 309 308 309 309 309 309 309 307 307 308 305 293 297 297 300 301 301 301 301 299 297 297 294 291 289 286 280 282 284 283 285 289 290
317 317 317 316 316 316 316 316 314 313 312 312 311 310 309 308 309 309 304 298 296 294 298 294 296 294 296 301 303 300 305 304 302 297 290 294 288 285 288 290 289 288 286 285 287 292 290
317 317 317 316 316 316 316 315 314 313 312 312 311 310 309 308 308 307 301 296 298 296 291 298 298 299 301 302 296 299 302 299 298 293 293 291 287 291 291 292 291 290 287 286 289 292 291
315 316 317 317 316 316 316 315 313 312 312 311 311 311 309 308 307 301 298 297 306 303 290 293 297 297 299 300 296 297 298 297 295 292 292 289 292 296 293 291 289 288 287 287 288 290 288
313 313 313 316 316 316 316 315 313 312 312 311 310 309 309 307 300 300 299 307 304 300 283 286 290 294 297 299 294 302 301 297 295 291 293 291 296 294 291 290 291 286 292 292 289 286 282
312 312 312 313 315 314 314 314 313 313 311 310 310 309 309 305 298 297 301 304 304 298 279 292 291 298 296 294 293 294 300 295 292 293 293 289 290 292 291 292 293 289 294 291 289 285 283
311 311 310 309 310 312 313 314 313 312 311 311 310 310 309 303 300 300 303 305 303 287 280 290 292 289 289 290 290 293 292 294 294 291 291 290 291 290 291 292 293 293 288 287 285 284 279
308 309 310 310 308 309 312 313 312 311 311 311 310 310 306 302 294 302 305 300 283 281 292 288 289 290 287 286 288 292 288 287 284 281 282 286 288 288 291 287 289 288 285 279 277 276 278
306 306 307 308 309 309 309 309 311 311 311 311 310 309 308 301 301 302 301 288 277 286 287 292 292 292 287 289 288 289 287 283 286 284 281 279 279 285 289 289 287 286 287 280 276 276 277
303 304 304 305 306 306 308 309 309 309 310 311 309 304 300 300 302 301 292 280 281 283 288 287 290 286 288 292 291 290 288 286 287 287 281 280 280 288 288 290 290 285 283 289 283 282 278
302 302 302 302 303 304 305 306 308 309 308 310 303 300 299 303 301 298 287 283 282 289 289 288 284 287 283 285 288 289 288 291 291 290 289 286 280 288 290 290 289 287 290 282 282 278 276
299 300 301 301 301 302 303 305 305 307 308 309 300 293 300 303 302 293 282 282 286 291 291 286 285 284 284 284 284 285 288 290 291 292 292 289 286 284 289 285 283 287 285 285 285 282 277
298 298 299 299 300 301 301 303 305 304 306 304 297 285 300 302 286 288 284 286 291 288 290 289 288 286 285 286 284 285 287 288 292 292 289 292 286 280 285 289 291 289 286 286 281 279 280
298 298 298 299 299 300 300 301 302 304 304 300 288 286 299 299 282 283 286 287 287 285 286 286 286 288 289 285 282 285 287 292 293 292 290 289 286 279 280 283 289 286 286 286 285 283 281
297 297 298 298 298 299 300 300 301 302 303 296 286 282 286 292 288 286 286 284 284 288 286 287 286 287 286 285 287 284 286 291 292 293 297 292 286 282 278 281 285 281 284 285 284 278 278
297 297 297 297 298 298 299 300 300 301 302 295 287 283 286 282 283 287 287 286 283 281 286 287 284 283 283 281 283 283 286 288 291 294 292 287 280 282 284 285 285 283 283 284 282 283 279
297 296 297 297 297 297 298 299 300 300 300 293 285 284 287 285 287 286 287 284 283 284 284 282 282 284 284 281 282 281 286 286 286 288 288 289 280 283 281 284 284 282 284 284 284 284 284
296 297 297 296 297 298 298 298 299 300 298 286 291 291 288 284 285 284 285 285 285 287 287 287 285 284 284 284 285 286 286 287 287 286 285 285 281 279 277 282 283 279 281 283 284 286 285
296 296 296 297 297 297 298 298 299 299 298 292 288 291 285 279 282 282 285 287 286 287 285 287 288 286 287 291 290 287 286 286 287 286 288 284 283 281 279 280 273 281 285 286 284 285 286
297 297 297 297 297 297 297 298 298 299 299 293 292 289 284 277 282 282 283 284 286 288 287 288 290 292 293 289 283 280 279 281 282 286 286 287 283 279 276 276 279 281 283 282 281 281 285
296 296 296 297 296 297 298 298 298 299 299 294 293 293 285 278 278 284 284 286 283 285 286 287 293 295 292 285 282 276 275 279 278 280 286 285 284 280 276 272 268 279 284 287 285 276 284
297 297 297 297 298 297 297 297 298 298 299 292 288 294 289 282 282 285 281 281 288 286 284 285 288 288 291 283 279 275 276 281 276 276 278 279 277 277 277 273 278 283 285 287 276 277 286
298 298 298 298 297 297 297 297 298 298 298 293 291 292 290 283 284 287 287 284 284 286 282 285 286 285 283 281 280 276 275 278 277 279 278 277 275 272 272 266 268 285 285 280 282 284 286
299 299 299 298 297 297 297 297 298 297 298 296 288 293 295 287 285 290 290 292 292 291 289 288 287 285 285 282 278 278 276 276 277 273 280 274 278 274 276 275 282 284 283 286 288 286 287
Wind_Speed
18 17 16 15 15 14 15 14 13 12 11 11 10 10 8 5 4 4 3 3 6 9 11 13 15 18 7 5 11 4 2 4 3 2 3 3 5 3 2 3 4 3 2 6 7 8 4
17 16 15 16 16 16 16 14 14 13 12 13 12 10 8 6 4 5 5 6 6 8 8 10 12 12 3 6 3 5 7 5 2 2 3 3 2 1 2 2 1 3 4 7 6 5 3
13 12 12 14 16 16 16 15 14 14 13 13 11 9 8 6 3 5 6 7 7 8 8 9 8 3 1 19 1 6 4 3 2 1 0 1 2 4 2 4 3 3 6 7 5 3 6
15 11 8 7 13 12 14 15 16 15 13 12 13 11 8 6 2 4 7 8 9 8 10 8 2 2 9 5 3 7 3 5 5 5 3 3 3 1 1 3 6 3 2 3 4 3 3
16 16 14 13 10 9 10 10 14 16 14 11 10 8 7 6 4 5 9 11 11 9 6 5 3 3 12 8 3 7 8 4 4 2 3 1 3 3 2 3 5 5 5 5 7 4 1
14 17 18 17 13 14 17 19 17 17 17 15 13 8 5 3 4 8 11 10 1 4 3 2 1 3 6 6 1 4 3 4 2 3 3 4 5 2 3 4 6 5 5 5 5 1 2
15 13 12 14 15 15 13 16 15 15 16 17 17 13 7 3 2 7 8 2 2 2 1 9 4 6 3 5 3 3 2 3 3 4 4 1 3 9 10 8 4 4 4 4 4 5 2
13 14 14 12 10 11 12 11 13 14 12 12 10 7 5 1 5 8 1 4 4 3 8 10 15 15 14 2 6 2 3 6 5 7 5 1 7 11 4 6 6 5 4 6 8 6 6
5 6 13 14 14 13 13 13 11 11 10 10 10 8 4 1 5 4 2 0 3 2 5 8 8 7 11 10 10 11 8 4 6 7 9 10 6 4 7 4 5 6 6 5 7 6 4
5 3 4 9 15 15 14 15 14 12 10 9 7 7 5 0 2 3 2 4 5 3 3 8 5 8 5 6 7 10 12 8 5 11 6 8 9 10 5 5 8 7 9 8 5 3 5
6 4 4 5 9 8 14 14 14 14 12 10 10 9 7 4 1 1 3 6 4 2 5 1 4 1 4 7 2 2 5 2 10 7 7 9 5 6 12 9 8 7 7 8 6 5 1
3 3 3 1 4 2 4 10 15 14 13 12 11 9 7 2 1 3 4 5 2 5 9 4 6 6 5 4 4 4 3 2 4 2 4 6 2 4 7 2 6 1 3 5 4 4 7
8 8 3 2 1 4 5 7 15 17 16 15 13 11 7 2 1 3 1 3 3 6 3 5 5 5 5 6 5 5 6 7 6 3 8 4 15 4 4 4 0 4 4 2 2 2 9
7 9 8 9 5 2 2 7 6 8 17 14 12 11 5 2 2 4 4 5 7 3 5 3 4 2 6 4 4 7 8 6 5 4 1 5 7 10 7 23 12 10 10 7 8 6 5
5 6 7 8 9 7 7 3 3 5 6 10 14 3 3 4 3 2 5 4 6 4 4 7 3 3 5 4 3 4 6 6 10 12 10 5 7 2 4 5 12 6 10 11 3 1 1
3 4 5 6 7 8 8 6 4 3 5 10 4 4 3 6 6 4 2 9 6 4 3 4 2 5 3 6 2 5 6 2 4 10 5 4 5 4 3 3 3 6 5 3 1 9 13
3 3 3 4 4 5 5 4 4 3 3 5 2 4 3 11 3 3 7 8 4 8 1 2 1 3 3 3 2 3 4 4 6 4 7 1 4 4 4 2 1 1 4 2 3 3 8
2 3 3 3 3 4 4 6 3 3 3 2 3 2 1 10 5 3 9 7 3 3 2 5 2 5 3 2 4 4 4 4 7 5 4 3 3 3 1 4 6 4 3 3 5 6 2
3 3 3 4 4 3 4 5 6 3 2 1 2 1 2 4 10 6 5 7 0 2 4 5 6 5 4 3 2 4 5 5 8 7 3 3 4 3 1 0 6 7 8 9 3 3 1
5 5 4 4 4 4 4 3 2 4 3 4 1 2 1 2 2 14 12 9 8 4 4 3 2 1 1 2 4 5 3 4 5 4 10 3 5 2 2 2 4 1 11 8 6 2 4
7 7 7 6 6 6 5 5 2 2 2 4 2 3 1 3 4 7 13 8 12 7 5 4 4 5 3 2 4 10 11 9 10 11 4 4 3 4 4 1 1 9 12 10 7 6 4
9 9 8 8 8 7 6 6 4 3 1 2 3 2 2 3 3 7 10 9 14 15 8 7 8 10 13 12 10 6 7 8 7 5 7 11 6 6 10 15 14 12 18 16 14 14 16
12 11 10 10 9 9 9 8 7 6 4 2 1 2 1 2 3 4 7 5 16 11 7 11 12 4 8 16 7 8 7 5 5 7 7 8 6 5 7 3 3 4 15 16 12 12 7
15 15 14 13 12 12 11 10 10 9 8 3 3 2 2 3 4 6 8 8 14 16 13 11 11 7 5 5 1 0 4 5 6 6 6 7 4 5 3 2 6 3 1 8 8 6 6
16 17 17 16 15 14 13 12 11 12 9 2 3 3 3 6 5 11 16 14 11 8 11 15 8 10 4 3 3 2 3 2 3 7 7 5 4 3 3 5 6 8 5 6 7 6 5
21 20 19 18 17 15 14 14 13 14 13 3 3 3 3 2 10 12 5 8 7 5 5 7 4 4 4 3 2 7 7 5 5 3 4 4 2 6 3 3 5 14 3 3 4 6 4
22 22 22 20 18 17 16 15 15 15 15 5 3 8 3 6 4 5 7 8 6 4 3 3 6 8 7 5 5 4 6 5 6 6 5 4 1 8 5 4 8 5 7 4 4 11 3
24 24 23 21 20 18 17 16 17 15 14 6 2 5 5 4 9 6 10 14 12 6 7 3 5 1 3 6 5 5 4 6 4 5 7 7 7 5 3 3 9 7 4 8 7 2 3
26 26 25 25 24 23 18 18 18 16 14 12 2 3 7 7 5 4 14 17 13 14 7 5 5 7 4 4 3 3 3 1 4 5 2 5 8 7 9 9 5 4 3 2 2 2 5
Wind_Direction
214 216 215 215 218 221 222 223 223 219 216 223 234 240 242 212 224 265 291 318 331 331 335 344 342 340 360 1 255 316 8 355 321 359 66 28 43 5 3 302 335 180 283 306 305 309 233
209 212 214 215 218 220 224 222 221 220 215 218 222 229 214 183 224 269 304 316 322 314 327 335 342 337 28 293 259 20 19 335 1 20 12 68 34 278 276 291 320 321 283 279 295 287 276
192 199 203 222 225 226 223 221 219 219 217 218 212 191 170 167 204 293 301 305 306 309 311 313 343 21 83 244 276 332 322 271 282 220 306 131 76 40 345 318 336 307 311 316 247 238 234
148 158 164 222 233 229 225 221 218 219 215 206 162 145 152 151 224 318 313 310 302 298 301 295 2 68 253 251 272 289 206 276 236 251 220 229 137 122 193 308 6 350 54 301 285 156 290
127 122 122 115 114 136 147 139 111 98 97 99 110 122 137 105 47 336 307 299 289 287 255 261 90 116 266 300 282 273 176 208 164 154 249 83 105 139 41 84 4 359 250 222 310 204 167
126 129 132 124 126 126 121 124 127 132 135 136 136 133 109 59 350 333 314 306 62 81 118 162 29 3 267 251 266 308 195 179 158 106 79 74 46 92 74 112 226 226 241 250 243 249 100
151 138 136 139 142 139 141 135 143 152 152 157 161 157 168 165 343 343 338 31 349 332 219 204 181 262 273 286 305 151 190 119 107 82 167 154 122 219 198 198 163 160 213 271 260 260 341
171 162 169 158 171 165 163 162 157 162 164 165 155 154 154 347 357 323 331 93 108 192 299 245 256 244 262 18 331 244 165 180 155 195 152 99 224 238 178 196 211 231 249 265 294 267 182
242 202 192 184 193 196 191 175 177 178 175 167 165 156 142 74 315 322 105 244 356 131 267 271 212 226 231 173 229 229 158 196 182 168 195 197 206 74 185 171 201 229 204 218 222 318 299
223 242 249 252 204 207 204 182 176 187 186 163 155 141 160 87 295 298 155 287 332 130 320 276 239 255 183 160 273 208 184 168 224 199 192 238 221 236 162 203 185 243 204 214 240 164 240
214 224 250 284 228 229 212 190 178 183 184 185 175 174 171 121 104 299 11 316 300 34 318 203 201 136 154 180 279 48 148 234 208 190 143 221 184 197 231 229 177 229 194 194 197 188 23
53 190 187 293 339 303 248 192 179 185 186 188 186 174 156 157 173 238 328 322 6 76 252 270 156 187 154 226 295 92 128 137 172 238 272 216 157 163 196 163 173 54 76 60 62 107 247
64 57 49 189 252 359 262 225 202 186 193 193 187 173 158 169 168 325 3 64 68 198 155 227 206 181 208 189 196 156 158 173 174 149 244 290 250 209 195 301 317 154 98 272 269 172 241
76 69 58 58 49 35 333 10 207 214 206 196 187 171 206 203 70 343 38 52 209 214 280 15 360 198 192 173 226 181 144 178 213 131 66 200 309 180 205 211 189 201 179 188 195 192 234
81 72 61 47 46 45 35 348 343 340 211 218 163 153 159 227 170 6 87 200 223 213 332 353 317 275 221 211 211 179 217 193 187 172 181 199 267 236 155 195 164 205 202 229 293 138 78
92 80 63 52 38 19 21 11 283 336 329 164 131 163 199 144 142 103 141 236 221 233 14 354 284 42 341 354 195 190 202 346 210 189 177 204 292 263 286 130 253 187 163 129 258 222 240
35 38 49 43 37 27 14 343 347 311 303 288 137 168 199 132 126 159 208 216 249 260 353 289 351 329 351 18 327 318 357 26 2 358 159 121 162 259 51 62 180 155 203 202 145 183 236
331 335 346 346 349 8 357 5 317 42 78 167 304 158 269 134 175 216 213 188 238 253 124 226 227 229 204 10 352 354 2 17 351 328 38 6 97 280 220 44 46 69 29 39 208 230 272
299 292 304 316 315 324 349 357 9 358 109 13 142 228 257 221 192 214 216 206 327 254 208 201 220 225 219 119 343 347 8 354 28 21 67 344 39 345 34 233 44 30 9 15 336 15 226
274 280 285 284 285 303 309 321 333 332 192 99 146 297 283 263 307 202 199 197 215 214 265 316 294 124 130 144 118 315 338 340 28 50 40 32 147 251 312 21 217 300 322 342 6 1 346
254 262 267 275 276 276 283 285 301 341 238 93 127 224 169 203 240 228 199 180 197 214 210 189 254 193 149 162 217 208 221 252 293 292 88 62 304 278 284 208 322 319 308 278 216 225 231
254 247 253 258 261 265 258 259 257 222 142 150 166 211 194 274 278 197 205 191 205 210 166 220 221 191 214 227 214 216 198 210 199 236 222 178 248 254 254 261 277 274 263 255 265 254 220
262 262 253 251 259 255 251 242 243 229 161 136 146 120 204 290 307 223 222 224 220 187 225 229 215 178 177 220 197 242 257 256 231 190 180 164 181 176 257 238 261 222 230 234 242 247 228
252 254 255 255 249 250 251 250 229 233 201 145 215 131 206 259 210 249 307 239 227 254 237 231 221 190 206 88 126 244 226 241 231 209 167 164 182 165 245 98 240 258 268 216 224 239 248
254 249 246 244 247 248 243 244 237 228 213 187 159 167 182 252 249 278 264 251 265 281 259 259 220 248 52 135 101 193 328 305 227 224 203 197 150 200 219 227 312 297 231 196 184 262 249
249 247 246 244 244 247 246 241 236 232 225 171 181 163 180 202 229 232 278 300 245 230 205 214 289 357 99 167 173 185 199 173 203 235 230 113 99 177 158 199 231 253 226 126 100 283 250
246 245 243 241 242 237 242 239 234 230 227 198 221 188 209 248 208 180 214 221 200 204 236 193 186 178 170 189 210 175 218 176 203 188 163 154 132 205 214 216 262 245 183 145 187 263 183
237 240 240 234 237 242 233 232 227 224 227 199 219 196 214 244 257 236 234 234 247 227 227 217 110 147 157 196 187 189 183 201 181 179 171 165 167 191 95 109 277 186 93 192 219 217 209
236 235 235 232 218 234 229 223 222 223 223 202 221 205 234 239 271 295 242 237 232 248 204 210 185 149 239 151 210 140 164 116 155 224 140 222 184 182 178 206 230 226 217 208 144 227 262